LRTR Weather Reports


Display with metric or nautical units.
time (UTC)temp
F
wind
direction
speed
MPH
gust
MPH
rain 1hr
in
rain 24hr
in
rain mn
in
humidity
%
barometer
mb
20260906013419 55 2.0 0.0 0.00 0.00 0.00 94 1022.0
20260906011805 59 260 3.0 0.0 0.00 0.00 0.00 88 1022.0
20260906010305 59 260 3.0 0.0 0.00 0.00 0.00 88 1022.0
20260906004919 61 240 3.0 0.0 0.00 0.00 0.00 88 1022.0
20260906003420 59 250 3.0 0.0 0.00 0.00 0.00 88 1022.0
20260906001919 59 250 3.0 0.0 0.00 0.00 0.00 88 1022.0
20260906000410 59 250 3.0 0.0 0.00 0.00 0.00 88 1021.0
20260905234815 59 250 3.0 0.0 0.00 0.00 0.00 88 1021.0
20260905233305 59 250 3.0 0.0 0.00 0.00 0.00 88 1021.0
20260905231919 59 310 5.0 0.0 0.00 0.00 0.00 88 1021.0
20260905230337 59 310 5.0 0.0 0.00 0.00 0.00 88 1021.0
20260905224919 61 300 5.0 0.0 0.00 0.00 0.00 88 1021.0
20260905223319 61 300 5.0 0.0 0.00 0.00 0.00 88 1021.0
20260905221904 63 330 2.0 0.0 0.00 0.00 0.00 83 1021.0
20260905220419 64 2.0 0.0 0.00 0.00 0.00 73 1021.0
20260905214918 64 2.0 0.0 0.00 0.00 0.00 73 1021.0
20260905213305 64 2.0 0.0 0.00 0.00 0.00 73 1021.0
20260905211805 66 360 6.0 0.0 0.00 0.00 0.00 68 1020.0
20260905210305 66 360 6.0 0.0 0.00 0.00 0.00 68 1020.0
20260905204815 68 330 8.0 0.0 0.00 0.00 0.00 64 1020.0
20260905203305 68 330 8.0 0.0 0.00 0.00 0.00 64 1020.0
20260905201805 66 20 6.0 0.0 0.00 0.00 0.00 73 1019.0
20260905200419 73 340 13.0 0.0 0.00 0.00 0.00 38 1020.0
20260905194910 73 340 13.0 0.0 0.00 0.00 0.00 38 1020.0
20260905193305 73 340 13.0 0.0 0.00 0.00 0.00 38 1020.0
20260905191834 73 340 11.0 0.0 0.00 0.00 0.00 36 1019.0
20260905190305 73 340 11.0 0.0 0.00 0.00 0.00 36 1019.0
20260905184806 73 330 13.0 0.0 0.00 0.00 0.00 33 1019.0
20260905183310 73 330 13.0 0.0 0.00 0.00 0.00 33 1019.0
20260905181805 75 350 14.0 0.0 0.00 0.00 0.00 31 1018.0
20260905180305 75 350 14.0 0.0 0.00 0.00 0.00 31 1018.0
20260905174805 77 340 15.0 0.0 0.00 0.00 0.00 36 1018.0
20260905173305 77 340 15.0 0.0 0.00 0.00 0.00 36 1018.0
20260905171815 81 320 17.0 0.0 0.00 0.00 0.00 32 1017.0
20260905170305 81 320 17.0 0.0 0.00 0.00 0.00 32 1017.0
20260905164805 82 340 16.0 0.0 0.00 0.00 0.00 30 1017.0
20260905163306 82 340 16.0 0.0 0.00 0.00 0.00 30 1017.0
20260905161806 84 340 18.0 0.0 0.00 0.00 0.00 29 1017.0
20260905160305 84 340 18.0 0.0 0.00 0.00 0.00 29 1017.0
20260905154821 86 350 21.0 0.0 0.00 0.00 0.00 27 1016.0
20260905153305 86 350 21.0 0.0 0.00 0.00 0.00 27 1016.0
20260905151805 88 360 23.0 0.0 0.00 0.00 0.00 27 1016.0
20260905150306 88 360 23.0 0.0 0.00 0.00 0.00 27 1016.0
20260905144805 88 350 24.0 0.0 0.00 0.00 0.00 29 1015.0
20260905143305 88 350 24.0 0.0 0.00 0.00 0.00 29 1015.0
20260905141805 88 350 25.0 0.0 0.00 0.00 0.00 33 1015.0
20260905140305 88 350 25.0 0.0 0.00 0.00 0.00 33 1015.0
20260905134916 90 340 24.0 0.0 0.00 0.00 0.00 31 1015.0
20260905133305 90 340 24.0 0.0 0.00 0.00 0.00 31 1015.0
20260905130326 91 290 11.0 0.0 0.00 0.00 0.00 30 1014.0
20260905124806 93 11.0 0.0 0.00 0.00 0.00 26 1014.0
20260905123306 93 11.0 0.0 0.00 0.00 0.00 26 1014.0
20260905121832 95 260 11.0 0.0 0.00 0.00 0.00 25 1015.0
20260905120306 95 260 11.0 0.0 0.00 0.00 0.00 25 1015.0
20260905114805 95 270 9.0 0.0 0.00 0.00 0.00 23 1015.0
20260905113305 95 270 9.0 0.0 0.00 0.00 0.00 23 1015.0
20260905111823 93 240 13.0 0.0 0.00 0.00 0.00 26 1015.0
20260905110305 93 240 13.0 0.0 0.00 0.00 0.00 26 1015.0
20260905104805 91 240 14.0 0.0 0.00 0.00 0.00 26 1015.0
20260905103305 91 240 14.0 0.0 0.00 0.00 0.00 26 1015.0
20260905101805 91 240 11.0 0.0 0.00 0.00 0.00 26 1016.0
20260905100306 91 240 11.0 0.0 0.00 0.00 0.00 26 1016.0
20260905094919 90 210 10.0 0.0 0.00 0.00 0.00 27 1016.0
20260905093305 90 210 10.0 0.0 0.00 0.00 0.00 27 1016.0
20260905091805 86 210 10.0 0.0 0.00 0.00 0.00 31 1016.0
20260905090305 86 210 10.0 0.0 0.00 0.00 0.00 31 1016.0
20260905084805 84 200 10.0 0.0 0.00 0.00 0.00 33 1016.0
20260905083305 84 200 10.0 0.0 0.00 0.00 0.00 33 1016.0
20260905081805 82 200 8.0 0.0 0.00 0.00 0.00 35 1016.0
20260905080306 82 200 8.0 0.0 0.00 0.00 0.00 35 1016.0
20260905074805 81 180 7.0 0.0 0.00 0.00 0.00 39 1016.0
20260905073314 81 180 7.0 0.0 0.00 0.00 0.00 39 1016.0
20260905071805 75 160 9.0 0.0 0.00 0.00 0.00 47 1016.0
20260905070305 75 160 9.0 0.0 0.00 0.00 0.00 47 1016.0
20260905064805 73 130 8.0 0.0 0.00 0.00 0.00 50 1016.0
20260905063305 73 130 8.0 0.0 0.00 0.00 0.00 50 1016.0
20260905061806 70 110 9.0 0.0 0.00 0.00 0.00 57 1016.0
20260905060306 70 110 9.0 0.0 0.00 0.00 0.00 57 1016.0
20260905054805 68 100 8.0 0.0 0.00 0.00 0.00 60 1016.0
20260905053306 68 100 8.0 0.0 0.00 0.00 0.00 60 1016.0
20260905051805 64 100 8.0 0.0 0.00 0.00 0.00 68 1016.0
20260905050305 64 100 8.0 0.0 0.00 0.00 0.00 68 1016.0
20260905044805 61 100 9.0 0.0 0.00 0.00 0.00 77 1016.0
20260905043305 61 100 9.0 0.0 0.00 0.00 0.00 77 1016.0
20260905041805 59 100 8.0 0.0 0.00 0.00 0.00 77 1016.0
20260905040305 59 100 8.0 0.0 0.00 0.00 0.00 77 1016.0
20260905034805 59 100 7.0 0.0 0.00 0.00 0.00 77 1016.0
20260905033305 59 100 7.0 0.0 0.00 0.00 0.00 77 1016.0
20260905031805 61 100 8.0 0.0 0.00 0.00 0.00 77 1016.0
20260905030305 61 100 8.0 0.0 0.00 0.00 0.00 77 1016.0
20260905024818 61 100 8.0 0.0 0.00 0.00 0.00 77 1016.0
20260905023305 61 100 8.0 0.0 0.00 0.00 0.00 77 1016.0
20260905021805 61 100 8.0 0.0 0.00 0.00 0.00 77 1016.0
20260905020306 61 100 8.0 0.0 0.00 0.00 0.00 77 1016.0
20260905014805 59 100 7.0 0.0 0.00 0.00 0.00 77 1016.0